[[{"header":{"parameterUnit":"m.s-1","parameterCategory":1,"la1":30.2991,"la2":30.254,"lo1":-89.0895,"lo2":-89.0444,"dy":0.0017,"dx":0.0017,"nx":28,"ny":28,"refTime":"2024-05-08T21:00:00:Z","depth":0,"parameterNumber":2,"parameterNumberName":"U-component_of_WINDS"},"data":[0,0,0,0,0,0,0,0,0,0,0,0,0,0,0,0,0,0,0,0,0,0,0,0,0,0,0,0,0,0,0,0,0,0,0,0,0,0,0,0,0,0,0,0,0,0,0,0,0,0,0,0,0,0,0,0,0,0,-2.9251,-2.9252,0,-2.9342,-2.9343,-2.9344,-2.9347,-2.9346,-2.9345,-2.9344,-2.9442,-2.9445,-2.9449,0,0,0,0,0,0,0,0,0,0,0,0,0,-2.9086,-2.9088,-2.9251,-2.9252,-2.9253,-2.9342,-2.9343,-2.9344,-2.9348,-2.9346,-2.9345,-2.9344,-2.944,-2.9445,-2.9449,0,0,0,0,0,0,0,0,0,0,0,0,0,-2.9165,-2.9089,-2.9251,-2.9265,-2.9268,-2.9341,-2.9343,-2.9345,-2.9348,-2.9346,-2.9344,-2.9343,-2.9439,-2.9444,-2.945,-2.9516,0,0,-2.9466,-2.9469,0,0,0,0,0,0,0,0,-2.9161,-2.9171,-2.9262,-2.9265,-2.9267,-2.9331,-2.932,-2.9402,-2.9348,-2.9318,-2.9344,-2.9342,-2.9407,-2.9415,-2.9435,-2.9521,-2.9525,-2.9467,-2.947,-2.9472,-2.9474,0,0,0,0,0,0,0,-2.9155,-2.9167,-2.9287,-2.9264,-2.9267,-2.9269,-2.9279,-2.9336,-2.937,-2.932,-2.932,-2.9331,-2.9408,-2.943,-2.9438,-2.9526,-2.9467,-2.9471,-2.9475,-2.9477,-2.9672,-2.9674,0,0,0,0,0,0,-2.9146,-2.9163,-2.9284,-2.929,-2.9209,-2.9273,-2.9284,-2.9313,-2.937,-2.9377,-2.9332,-2.9331,-2.9422,-2.9431,-2.9441,-2.9523,-2.9472,-2.9477,-2.948,-2.967,-2.9673,-2.9675,0,0,0,0,0,0,-2.9142,-2.9157,-2.9281,-2.9226,-2.9242,-2.9278,-2.931,-2.9315,-2.9338,-2.9379,-2.9386,-2.9349,-2.9421,-2.9433,-2.9497,-2.9527,-2.948,-2.9485,-2.9668,-2.9671,-2.9674,-2.9688,0,0,0,0,0,0,-2.9138,-2.9155,-2.918,-2.9227,-2.9245,-2.9334,-2.9312,-2.9318,-2.9346,-2.9345,-2.9396,-2.9403,-2.942,-2.9489,-2.9503,-2.9533,-2.9489,-2.9666,-2.9669,-2.9673,-2.9685,-2.9691,-2.9696,0,0,0,0,0,-2.9132,-2.9181,-2.9181,-2.9196,-2.9276,-2.9335,-2.9346,-2.9364,-2.9349,-2.9374,-2.9401,-2.9401,-2.9521,-2.9496,-2.9511,-2.9544,-2.9664,-2.9668,-2.9673,-2.9682,-2.9689,-2.9695,0,0,0,0,0,0,-2.9138,-2.9187,-2.9188,-2.9254,-2.929,-2.9336,-2.9369,-2.9371,-2.9414,-2.9411,-2.9433,-2.9445,-2.9508,-2.9533,-2.9503,-2.9612,-2.9591,-2.9599,-2.9593,-2.96,-2.9606,-2.9598,-2.9494,0,0,0,0,0,-2.9147,-2.9189,-2.9231,-2.9285,-2.9303,-2.9333,-2.9359,-2.937,-2.9409,-2.9425,-2.9456,-2.9496,-2.9543,-2.9573,-2.9618,-2.9689,-2.97,-2.9719,-2.9724,-2.9728,-2.9735,-2.9774,-2.9783,-2.9689,-2.9689,-2.9689,0,0,-2.9166,-2.9198,-2.9224,-2.9287,-2.9316,-2.9361,-2.9346,-2.9394,-2.9428,-2.9433,-2.9495,-2.9519,-2.9565,-2.9632,-2.9664,-2.9655,-2.9763,-2.9734,-2.9737,-2.9741,-2.978,-2.9788,-2.9796,-2.9692,-2.9692,-2.9691,0,0,-2.9223,-2.9252,-2.93,-2.9329,-2.9374,-2.9393,-2.9405,-2.9451,-2.9467,-2.9529,-2.9534,-2.9576,-2.9655,-2.9688,-2.9715,-2.9785,-2.9787,-2.98,-2.9828,-2.9867,-2.9874,-2.9881,-2.9906,-2.9915,-2.9806,-2.9806,-2.9806,0,-2.9242,-2.9308,-2.9325,-2.9372,-2.9401,-2.9406,-2.9456,-2.9485,-2.9542,-2.9562,-2.9551,-2.9652,-2.9683,-2.9758,-2.9775,-2.9797,-2.9812,-2.9794,-2.9871,-2.9878,-2.9885,-2.9909,-2.9919,-2.9807,-2.9807,-2.9807,-2.9807,0,-2.9328,-2.9374,-2.9408,-2.9462,-2.9494,-2.9543,-2.9569,-2.96,-2.9608,-2.9629,-2.9693,-2.9731,-2.9784,-2.9803,-2.9812,-2.988,-2.9873,-2.9866,-2.9846,-2.9895,-2.9918,-2.9928,-2.9809,-2.9808,-2.9808,-2.9808,0,0,-2.9392,-2.9454,-2.9466,-2.9491,-2.9541,-2.9577,-2.9627,-2.9678,-2.9704,-2.9744,-2.9787,-2.9855,-2.9849,-2.988,-2.9893,-2.9927,-2.9981,-2.9916,-2.9918,-2.9927,-3.0059,-3.0063,-3.0073,-2.9982,-2.9984,-2.9986,-3.0055,0,-2.9455,-2.9541,-2.9558,-2.9634,-2.9677,-2.9683,-2.9727,-2.9763,-2.9785,-2.9826,-2.9851,-2.9898,-2.9887,-2.9905,-2.9939,-2.9967,-3.0007,-2.9962,-3.0024,-3.0026,-3.0011,-3.0086,-3.0091,-3.0154,-3.0064,-3.0066,-3.0067,0,-2.954,-2.958,-2.9659,-2.9703,-2.9722,-2.9761,-2.9809,-2.9847,-2.9889,-2.9903,-2.9937,-2.9947,-3.0,-2.9978,-3.0053,-3.0022,-3.0048,-3.0066,-3.0069,-3.0075,-3.0049,-3.0094,-3.0174,-3.0184,-3.0081,-3.008,-3.0079,0,-2.9578,-2.9652,-2.9709,-2.9731,-2.9783,-2.981,-2.9834,-2.9874,-2.9903,-2.9946,-2.9966,-3.0015,-3.0042,-3.008,-3.0104,-3.0085,-3.0177,-3.0156,-3.0191,-3.019,-3.021,-3.0208,-3.0295,-3.0227,-3.0227,-3.0227,-3.0227,0,-2.9647,-2.9695,-2.9727,-2.9763,-2.9818,-2.9837,-2.9892,-2.9916,-2.9951,-2.9993,-3.0002,-3.0041,-3.0069,-3.0112,-3.0131,-3.0191,-3.0203,-3.0216,-3.0221,-3.0216,-3.0214,-3.0233,-3.0229,-3.0229,-3.0229,-3.0228,-3.0228,0,-2.9699,-2.9722,-2.9785,-2.9829,-2.9842,-2.9881,-2.992,-2.9955,-2.9977,-3.0029,-3.0042,-3.0077,-3.0129,-3.0155,-3.022,-3.0233,-3.03,-3.0302,-3.0285,-3.0287,-3.032,-3.0317,-3.0423,-3.0438,-3.0359,-3.036,-3.0361,0,-2.9741,-2.9778,-2.9826,-2.9853,-2.9877,-2.9921,-2.9951,-2.9973,-3.0003,-3.0054,-3.0084,-3.0135,-3.0178,-3.026,-3.0292,-3.0342,-3.0346,-3.0379,-3.0353,-3.0347,-3.0347,-3.0344,-3.0348,-3.0384,-3.0385,-3.0385,-3.0386,0,-2.9813,-2.9823,-2.9864,-2.991,-2.9945,-2.9982,-3.002,-3.0042,-3.007,-3.0105,-3.0156,-3.0189,-3.0255,-3.0307,-3.0359,-3.0385,-3.0391,-3.0394,-3.0404,-3.0399,-3.0388,-3.0395,-3.0298,-3.0391,-3.0391,-3.039,-3.039,-3.039,-2.9862,-2.9895,-2.9934,-2.998,-3.001,-3.0045,-3.008,-3.0105,-3.0148,-3.0202,-3.0213,-3.0268,-3.031,-3.0381,-3.0409,-3.0454,-3.0447,-3.0462,-3.0466,-3.047,-3.0471,-3.0381,-3.0463,-3.0463,-3.0463,-3.0463,-3.0463,0,-2.9935,-2.996,-3.0002,-3.0053,-3.009,-3.009,-3.0131,-3.0162,-3.021,-3.0248,-3.0289,-3.0349,-3.0399,-3.0435,-3.0487,-3.0516,-3.052,-3.0529,-3.0527,-3.0533,-3.0474,-3.046,-3.0525,-3.0525,-3.0525,-3.0525,-3.0525,-3.0525,-2.9978,-3.0034,-3.0048,-3.012,-3.0146,-3.0198,-3.0222,-3.0254,-3.0284,-3.035,-3.0391,-3.0414,-3.0452,-3.0506,-3.0553,-3.0562,-3.0581,-3.059,-3.06,-3.0544,-3.0537,-3.0531,-3.0518,-3.0594,-3.0594,-3.0655,-3.0656,-3.0656]},{"header":{"parameterUnit":"m.s-1","parameterCategory":1,"la1":30.2991,"la2":30.254,"lo1":-89.0895,"lo2":-89.0444,"dy":0.0017,"dx":0.0017,"nx":28,"ny":28,"refTime":"2024-05-08T21:00:00:Z","depth":0,"parameterNumber":3,"parameterNumberName":"V-component_of_WINDS"},"data":[0,0,0,0,0,0,0,0,0,0,0,0,0,0,0,0,0,0,0,0,0,0,0,0,0,0,0,0,0,0,0,0,0,0,0,0,0,0,0,0,0,0,0,0,0,0,0,0,0,0,0,0,0,0,0,0,0,0,5.7013,5.7014,0,5.7149,5.7151,5.7152,5.7182,5.7181,5.718,5.7179,5.7314,5.7319,5.7323,0,0,0,0,0,0,0,0,0,0,0,0,0,5.6776,5.678,5.7013,5.7015,5.7016,5.7149,5.7151,5.7153,5.7182,5.7181,5.7179,5.7178,5.7313,5.7318,5.7324,0,0,0,0,0,0,0,0,0,0,0,0,0,5.6892,5.6782,5.7013,5.7047,5.7051,5.7148,5.7151,5.7153,5.7182,5.7181,5.7179,5.7178,5.7311,5.7318,5.7324,5.7395,0,0,5.7345,5.7348,0,0,0,0,0,0,0,0,5.6886,5.6901,5.704,5.7045,5.705,5.7147,5.7117,5.7234,5.7182,5.7132,5.7179,5.7177,5.726,5.727,5.7299,5.7402,5.7408,5.7346,5.735,5.7353,5.7355,0,0,0,0,0,0,0,5.6878,5.6895,5.7067,5.7042,5.7048,5.7055,5.707,5.7139,5.7202,5.7137,5.7139,5.7155,5.7262,5.7292,5.7302,5.741,5.7345,5.7351,5.7356,5.7358,5.758,5.7581,0,0,0,0,0,0,5.6864,5.6888,5.7062,5.7071,5.6963,5.706,5.7077,5.7117,5.7202,5.7213,5.7156,5.7156,5.7282,5.7295,5.7307,5.7398,5.7353,5.7359,5.7363,5.7578,5.758,5.7582,0,0,0,0,0,0,5.6859,5.6879,5.7057,5.698,5.7004,5.7066,5.7111,5.7121,5.7151,5.7217,5.7228,5.7176,5.7281,5.7298,5.7374,5.7403,5.7362,5.7368,5.7576,5.7579,5.7581,5.7578,0,0,0,0,0,0,5.6852,5.6877,5.6905,5.6981,5.7007,5.7122,5.7113,5.7124,5.7163,5.7164,5.7238,5.7249,5.7281,5.7364,5.7381,5.7411,5.7373,5.7573,5.7577,5.758,5.7576,5.758,5.7584,0,0,0,0,0,5.6843,5.6897,5.6906,5.6927,5.7044,5.7123,5.7139,5.7176,5.7166,5.7194,5.7237,5.7246,5.7397,5.7371,5.7391,5.7424,5.7572,5.7576,5.758,5.7574,5.7579,5.7584,0,0,0,0,0,0,5.6822,5.6908,5.6919,5.6999,5.7054,5.7128,5.7165,5.718,5.7238,5.7236,5.7279,5.7295,5.7369,5.7404,5.7374,5.7498,5.7484,5.7492,5.7473,5.7478,5.7482,5.7472,5.7379,0,0,0,0,0,5.6827,5.6885,5.6957,5.7021,5.7048,5.7102,5.7138,5.7162,5.722,5.7243,5.7291,5.7345,5.7406,5.7444,5.7502,5.7581,5.7598,5.7613,5.7618,5.7621,5.7627,5.7673,5.7681,5.7596,5.7595,5.7595,0,0,5.6837,5.6891,5.6925,5.7018,5.7063,5.7122,5.7121,5.7183,5.7227,5.7252,5.7328,5.7365,5.7429,5.7507,5.7544,5.7539,5.7655,5.7626,5.7628,5.7633,5.7678,5.7686,5.7693,5.7598,5.7598,5.7597,0,0,5.6886,5.6932,5.6992,5.7038,5.7107,5.7143,5.7158,5.7231,5.7257,5.7334,5.7354,5.7407,5.7508,5.7554,5.759,5.7659,5.7671,5.7677,5.7698,5.7743,5.7749,5.7756,5.7781,5.779,5.7683,5.7683,5.7683,0,5.6889,5.698,5.702,5.7083,5.7123,5.715,5.7211,5.7253,5.7337,5.7364,5.7358,5.7488,5.7532,5.7623,5.764,5.7668,5.7686,5.7669,5.7745,5.7752,5.7758,5.7783,5.7793,5.7684,5.7684,5.7684,5.7683,0,5.6981,5.7044,5.7084,5.7167,5.7212,5.7273,5.7322,5.7363,5.7383,5.742,5.7499,5.7554,5.7625,5.7648,5.7668,5.7742,5.7737,5.7737,5.7724,5.7766,5.779,5.78,5.7684,5.7684,5.7684,5.7684,0,0,5.7019,5.7126,5.714,5.7179,5.7258,5.7307,5.7369,5.7441,5.7475,5.7533,5.7586,5.7673,5.7675,5.7716,5.7742,5.778,5.7833,5.7776,5.7779,5.7786,5.7919,5.7919,5.7929,5.7841,5.7843,5.7845,5.7914,0,5.7079,5.7192,5.7232,5.7325,5.7384,5.7412,5.7466,5.7521,5.7557,5.7612,5.7652,5.7713,5.771,5.7735,5.7775,5.7818,5.786,5.7814,5.7892,5.7894,5.7875,5.7941,5.7941,5.8003,5.7924,5.7925,5.7926,0,5.7163,5.7224,5.7324,5.7398,5.7425,5.7473,5.7542,5.7595,5.7657,5.7681,5.7728,5.7752,5.7818,5.7801,5.7893,5.7861,5.7895,5.7921,5.7924,5.7933,5.7913,5.7952,5.8024,5.8033,5.7941,5.794,5.7939,0,5.7182,5.7289,5.7363,5.7396,5.7483,5.7517,5.7555,5.7617,5.7657,5.7718,5.7745,5.7812,5.7848,5.7899,5.794,5.7923,5.8029,5.8015,5.805,5.8049,5.8071,5.8069,5.815,5.8092,5.8092,5.8092,5.8092,0,5.7244,5.7305,5.7374,5.7419,5.7488,5.7532,5.7599,5.7638,5.7693,5.7747,5.7774,5.7824,5.7874,5.7931,5.7963,5.8035,5.8051,5.8072,5.808,5.807,5.8067,5.8093,5.809,5.8095,5.8094,5.8094,5.8093,0,5.7277,5.7325,5.7409,5.7486,5.7507,5.7554,5.762,5.7666,5.7704,5.7771,5.779,5.7849,5.7917,5.7963,5.8049,5.8071,5.815,5.8156,5.8129,5.8133,5.8167,5.8163,5.8267,5.8283,5.8214,5.8214,5.8215,0,5.7314,5.7361,5.7445,5.7483,5.7522,5.7584,5.7626,5.7672,5.7715,5.7792,5.7828,5.7898,5.7957,5.8064,5.8114,5.8181,5.819,5.8222,5.82,5.8189,5.8191,5.8188,5.8194,5.8225,5.8225,5.8226,5.8226,0,5.7374,5.7397,5.7458,5.7528,5.7579,5.7636,5.7693,5.7723,5.7778,5.7825,5.7896,5.7942,5.8031,5.8101,5.8173,5.8211,5.8228,5.8233,5.8245,5.8235,5.8218,5.8229,5.8139,5.823,5.823,5.8229,5.8229,5.8229,5.7411,5.7455,5.7522,5.7589,5.7637,5.7691,5.7738,5.7783,5.7843,5.7921,5.7944,5.8018,5.808,5.8179,5.8219,5.8277,5.8274,5.8291,5.8295,5.8299,5.83,5.8209,5.829,5.829,5.829,5.829,5.829,0,5.7474,5.7519,5.758,5.7661,5.7714,5.7727,5.7791,5.7835,5.79,5.7958,5.8016,5.8098,5.8166,5.8222,5.8293,5.8329,5.8338,5.8346,5.8343,5.8352,5.8298,5.8281,5.8337,5.8337,5.8337,5.8337,5.8337,5.8337,5.7513,5.759,5.762,5.772,5.7764,5.7838,5.7874,5.7923,5.797,5.8061,5.8118,5.8155,5.8213,5.8288,5.8351,5.8366,5.8391,5.8397,5.8413,5.8361,5.8356,5.8351,5.8335,5.8401,5.8402,5.8463,5.8464,5.8464]}]]